Weather History for Covington, KY

Change the Weather History Date:

Monday, March 11, 2013

  Actual Average Record
Temperature  
Mean Temperature 46 °F 42 °F  
Max Temperature 55 °F 51 °F 78 °F (1990)
Min Temperature 37 °F 33 °F 10 °F (1934)
Degree Days  
Heating Degree Days 19 23  
Month to date heating degree days 314 275  
Since 1 July heating degree days 4024 4102  
Cooling Degree Days 0 0  
Month to date cooling degree days 0 0  
Year to date cooling degree days 0 0  
Moisture  
Dew Point 46 °F    
Average Humidity 86    
Maximum Humidity 100    
Minimum Humidity 71    
Precipitation  
Precipitation 1.23 in 0.12 in 1.97 in (1939)
Month to date precipitation 2.04 1.24  
Year to date precipitation 7.64 7.05  
Snow  
Snow 0.00 in 0.10 in 4.50 in (1959)
Month to date snowfall 4.9 1.4  
Since 1 July snowfall 21.3 20.0  
Snow Depth 0.00 in    
Sea Level Pressure  
Sea Level Pressure 29.74 in    
Wind  
Wind Speed 12 mph (SSW)    
Max Wind Speed 28 mph    
Max Gust Speed 37 mph    
Visibility 8 miles    
Events Rain    
T = Trace of Precipitation, MM = Missing Value Source: NWS Daily Summary

Daily Weather History Graph

Daily Weather History Graph

Search for Another Location

Airport:

Trip Planner

Search our weather history database for the weather conditions in past years. The results will help you decide how hot, cold, wet, or windy it might be!

Date:

Astronomy

Mar. 11, 2013 Rise Set
Actual Time 7:55 AM EDT 7:41 PM EDT
Civil Twilight 7:29 AM EDT 8:08 PM EDT
Nautical Twilight 6:58 AM EDT 8:39 PM EDT
Astronomical Twilight 6:27 AM EDT 9:10 PM EDT
Moon 7:29 AM EDT (3/11) 7:52 PM EDT (3/11)
Length of Visible Light 12h 39m
Length of Day
11h 46m
Waning Crescent, 0% of the Moon is Illuminated
Mar 11
Waning Crescent
Mar 11
New
Mar 19
First Quarter
Mar 27
Full
Apr 3
Last Quarter

Hourly Weather History & Observations

Time (EDT) Temp. Windchill Dew Point Humidity Pressure Visibility Wind Dir Wind Speed Gust Speed Precip Events Conditions
12:52 AM 54.0 °F - 45.0 °F 72% 29.86 in 9.0 mi SSW 9.2 mph - 0.02 in Rain Light Rain
1:52 AM 51.1 °F - 48.9 °F 92% 29.82 in 6.0 mi SSE 10.4 mph - 0.10 in Rain Light Rain
2:52 AM 51.1 °F - 48.0 °F 89% 29.82 in 7.0 mi South 13.8 mph - 0.09 in Rain Light Rain
3:52 AM 50.0 °F - 48.9 °F 96% 29.79 in 7.0 mi SSE 9.2 mph - 0.11 in Rain Light Rain
4:52 AM 50.0 °F - 48.9 °F 96% 29.79 in 5.0 mi South 5.8 mph - 0.10 in Rain Rain
5:52 AM 50.0 °F - 48.2 °F 94% 29.81 in 5.0 mi South 5.8 mph - N/A Rain Rain
6:52 AM 48.9 °F - 48.9 °F 100% 29.78 in 6.0 mi SSE 8.1 mph - 0.14 in Rain Light Rain
7:52 AM 50.0 °F - 50.0 °F 100% 29.78 in 4.0 mi SSE 10.4 mph - 0.12 in Rain Light Rain
8:52 AM 51.1 °F - 51.1 °F 100% 29.78 in 5.0 mi SSE 12.7 mph - 0.12 in Rain Light Rain
9:40 AM 51.8 °F - 51.8 °F 100% 29.72 in 7.0 mi SE 15.0 mph - 0.03 in Rain Light Rain
9:52 AM 52.0 °F - 52.0 °F 100% 29.72 in 8.0 mi South 11.5 mph - 0.03 in Rain Light Rain
9:56 AM 51.8 °F - 51.8 °F 100% 29.72 in 7.0 mi SSE 10.4 mph - 0.00 in Rain Light Rain
10:36 AM 53.6 °F - 53.6 °F 100% 29.72 in 10.0 mi South 15.0 mph 18.4 mph 0.00 in   Overcast
10:52 AM 53.1 °F - 53.1 °F 100% 29.70 in 10.0 mi South 13.8 mph 23.0 mph 0.00 in   Overcast
11:28 AM 53.6 °F - 53.6 °F 100% 29.70 in 10.0 mi SSE 15.0 mph - 0.00 in Rain Light Rain
11:52 AM 53.1 °F - 53.1 °F 100% 29.67 in 6.0 mi SSE 21.9 mph 28.8 mph 0.02 in Rain Light Rain
12:30 PM 53.6 °F - 53.6 °F 100% 29.65 in 6.0 mi SSE 23.0 mph 33.4 mph 0.01 in Rain Light Rain
12:52 PM 54.0 °F - 54.0 °F 100% 29.64 in 6.0 mi South 21.9 mph 29.9 mph 0.04 in Rain Light Rain
1:36 PM 53.6 °F - 53.6 °F 100% 29.63 in 5.0 mi South 21.9 mph 28.8 mph 0.07 in Rain Rain
1:50 PM 51.8 °F - 51.8 °F 100% 29.64 in 3.0 mi SW 13.8 mph 35.7 mph 0.15 in Rain Rain
1:52 PM 52.0 °F - 51.1 °F 97% 29.64 in 4.0 mi SW 19.6 mph 29.9 mph 0.15 in Rain Rain
2:06 PM 50.0 °F - 48.2 °F 94% 29.67 in 9.0 mi WSW 23.0 mph 36.8 mph 0.02 in Rain Light Rain
2:25 PM 48.2 °F - 46.4 °F 93% 29.67 in 7.0 mi WSW 16.1 mph 25.3 mph 0.02 in Rain Light Rain
2:52 PM 48.0 °F - 46.0 °F 93% 29.65 in 7.0 mi SW 11.5 mph 27.6 mph 0.02 in Rain Light Rain
3:22 PM 46.4 °F 40.1 °F 46.4 °F 100% 29.67 in 10.0 mi WSW 15.0 mph 20.7 mph 0.01 in Rain Light Rain
3:52 PM 46.9 °F - 42.1 °F 83% 29.67 in 10.0 mi WSW 16.1 mph 26.5 mph 0.01 in   Overcast
4:26 PM 46.4 °F 39.8 °F 42.8 °F 87% 29.66 in 10.0 mi SW 16.1 mph 21.9 mph N/A   Overcast
4:52 PM 46.9 °F - 41.0 °F 80% 29.66 in 10.0 mi SSW 10.4 mph 17.3 mph N/A   Overcast
5:52 PM 48.0 °F - 41.0 °F 77% 29.70 in 10.0 mi SW 11.5 mph 19.6 mph N/A   Overcast
6:16 PM 48.2 °F - 39.2 °F 71% 29.71 in 10.0 mi WSW 12.7 mph 21.9 mph N/A   Overcast
6:42 PM 44.6 °F 38.1 °F 37.4 °F 76% 29.74 in 10.0 mi WSW 13.8 mph 27.6 mph N/A   Overcast
6:52 PM 44.1 °F 38.1 °F 37.9 °F 79% 29.75 in 10.0 mi West 11.5 mph 19.6 mph N/A   Overcast
7:44 PM 42.8 °F 36.2 °F 35.6 °F 76% 29.78 in 10.0 mi WSW 12.7 mph 21.9 mph 0.00 in   Overcast
7:52 PM 42.1 °F 36.6 °F 36.0 °F 79% 29.79 in 10.0 mi WSW 9.2 mph 19.6 mph 0.00 in   Overcast
8:29 PM 41.0 °F 33.1 °F 35.6 °F 81% 29.81 in 6.0 mi West 15.0 mph 20.7 mph 0.00 in Rain Light Rain
8:52 PM 39.9 °F 32.9 °F 36.0 °F 86% 29.82 in 10.0 mi WSW 11.5 mph 16.1 mph 0.00 in   Overcast
9:37 PM 39.2 °F 34.2 °F 35.6 °F 87% 29.84 in 10.0 mi WSW 6.9 mph - N/A   Overcast
9:52 PM 39.9 °F 32.5 °F 34.0 °F 79% 29.85 in 10.0 mi WSW 12.7 mph 19.6 mph N/A   Overcast
10:52 PM 37.9 °F 30.9 °F 32.0 °F 79% 29.86 in 10.0 mi WSW 10.4 mph 19.6 mph N/A   Overcast
11:52 PM 37.9 °F 32.1 °F 32.0 °F 79% 29.87 in 10.0 mi WSW 8.1 mph - N/A   Overcast